owner,sensor,date,latitude,longitude,vertical_datum,mass_concentration_of_oxygen_in_sea_water,qcFlag 
DISL,ioos:station:DISL:KATA:1,2011-07-01T00:00:00Z,30.2583,-88.2131,4.057,6.63,1111122 
DISL,ioos:station:DISL:KATA:1,2011-07-01T00:30:00Z,30.2583,-88.2131,4.046,6.51,1111122 
DISL,ioos:station:DISL:KATA:1,2011-07-01T01:00:00Z,30.2583,-88.2131,4.039,6.29,1111122 
DISL,ioos:station:DISL:KATA:1,2011-07-01T01:30:00Z,30.2583,-88.2131,4.058,6.18,1111122 
DISL,ioos:station:DISL:KATA:1,2011-07-01T02:00:00Z,30.2583,-88.2131,4.078,6.03,1111122 
DISL,ioos:station:DISL:KATA:1,2011-07-01T02:30:00Z,30.2583,-88.2131,4.102,5.79,1111122 
DISL,ioos:station:DISL:KATA:1,2011-07-01T03:00:00Z,30.2583,-88.2131,4.112,5.54,1111122 
DISL,ioos:station:DISL:KATA:1,2011-07-01T03:30:00Z,30.2583,-88.2131,4.137,5.55,1111122 
DISL,ioos:station:DISL:KATA:1,2011-07-01T04:00:00Z,30.2583,-88.2131,4.149,5.36,1111122 
DISL,ioos:station:DISL:KATA:1,2011-07-01T04:30:00Z,30.2583,-88.2131,4.147,2.14,1111122 
DISL,ioos:station:DISL:KATA:1,2011-07-01T05:00:00Z,30.2583,-88.2131,4.157,2.25,1111122 
DISL,ioos:station:DISL:KATA:1,2011-07-01T05:30:00Z,30.2583,-88.2131,4.183,1.4,1111122 
DISL,ioos:station:DISL:KATA:1,2011-07-01T06:00:00Z,30.2583,-88.2131,4.214,1.62,1111122 
DISL,ioos:station:DISL:KATA:1,2011-07-01T06:30:00Z,30.2583,-88.2131,4.248,1.89,1111122 
DISL,ioos:station:DISL:KATA:1,2011-07-01T07:00:00Z,30.2583,-88.2131,4.294,1.89,1111122 
DISL,ioos:station:DISL:KATA:1,2011-07-01T07:30:00Z,30.2583,-88.2131,4.345,2.07,1111122 
DISL,ioos:station:DISL:KATA:1,2011-07-01T08:00:00Z,30.2583,-88.2131,4.39,2.09,1111122 
DISL,ioos:station:DISL:KATA:1,2011-07-01T08:30:00Z,30.2583,-88.2131,4.424,2.14,1111122 
DISL,ioos:station:DISL:KATA:1,2011-07-01T09:00:00Z,30.2583,-88.2131,4.427,1.88,1111122 
DISL,ioos:station:DISL:KATA:1,2011-07-01T09:30:00Z,30.2583,-88.2131,4.435,2.16,1111122 
DISL,ioos:station:DISL:KATA:1,2011-07-01T10:00:00Z,30.2583,-88.2131,4.426,2.52,1111122 
DISL,ioos:station:DISL:KATA:1,2011-07-01T10:30:00Z,30.2583,-88.2131,4.42,2.82,1111122 
DISL,ioos:station:DISL:KATA:1,2011-07-01T11:00:00Z,30.2583,-88.2131,4.465,2.95,1111122 
DISL,ioos:station:DISL:KATA:1,2011-07-01T11:30:00Z,30.2583,-88.2131,4.505,3.07,1111122 
DISL,ioos:station:DISL:KATA:1,2011-07-01T12:00:00Z,30.2583,-88.2131,4.553,3.24,1111122 
DISL,ioos:station:DISL:KATA:1,2011-07-01T12:30:00Z,30.2583,-88.2131,4.607,3.64,1111122 
DISL,ioos:station:DISL:KATA:1,2011-07-01T13:00:00Z,30.2583,-88.2131,4.655,4.4,1111122 
DISL,ioos:station:DISL:KATA:1,2011-07-01T13:30:00Z,30.2583,-88.2131,4.671,5.1,1111122 
DISL,ioos:station:DISL:KATA:1,2011-07-01T14:00:00Z,30.2583,-88.2131,4.674,5.29,1111122 
DISL,ioos:station:DISL:KATA:1,2011-07-01T14:30:00Z,30.2583,-88.2131,4.68,5.49,1111122 
DISL,ioos:station:DISL:KATA:1,2011-07-01T15:00:00Z,30.2583,-88.2131,4.686,5.48,1111122 
DISL,ioos:station:DISL:KATA:1,2011-07-01T15:30:00Z,30.2583,-88.2131,4.692,5.43,1111122 
DISL,ioos:station:DISL:KATA:1,2011-07-01T16:00:00Z,30.2583,-88.2131,4.682,5.35,1111122 
DISL,ioos:station:DISL:KATA:1,2011-07-01T16:30:00Z,30.2583,-88.2131,4.677,5.55,1111122 
DISL,ioos:station:DISL:KATA:1,2011-07-01T17:00:00Z,30.2583,-88.2131,4.658,5.32,1111122 
DISL,ioos:station:DISL:KATA:1,2011-07-01T17:30:00Z,30.2583,-88.2131,4.636,5.39,1111122 
DISL,ioos:station:DISL:KATA:1,2011-07-01T18:00:00Z,30.2583,-88.2131,4.608,5.41,1111122 
DISL,ioos:station:DISL:KATA:1,2011-07-01T18:30:00Z,30.2583,-88.2131,4.578,5.51,1111122 
DISL,ioos:station:DISL:KATA:1,2011-07-01T19:00:00Z,30.2583,-88.2131,4.542,5.5,1111122 
DISL,ioos:station:DISL:KATA:1,2011-07-01T19:30:00Z,30.2583,-88.2131,4.494,5.44,1111122 
DISL,ioos:station:DISL:KATA:1,2011-07-01T20:00:00Z,30.2583,-88.2131,4.449,5.39,1111122 
DISL,ioos:station:DISL:KATA:1,2011-07-01T20:30:00Z,30.2583,-88.2131,4.406,5.51,1111122 
DISL,ioos:station:DISL:KATA:1,2011-07-01T21:00:00Z,30.2583,-88.2131,4.364,6.12,1111122 
DISL,ioos:station:DISL:KATA:1,2011-07-01T21:30:00Z,30.2583,-88.2131,4.313,6.04,1111122 
DISL,ioos:station:DISL:KATA:1,2011-07-01T22:00:00Z,30.2583,-88.2131,4.266,6.1,1111122 
DISL,ioos:station:DISL:KATA:1,2011-07-01T22:30:00Z,30.2583,-88.2131,4.212,6.06,1111122 
DISL,ioos:station:DISL:KATA:1,2011-07-01T23:00:00Z,30.2583,-88.2131,4.178,6.32,1111122 
DISL,ioos:station:DISL:KATA:1,2011-07-01T23:30:00Z,30.2583,-88.2131,4.142,6.57,1111122 
DISL,ioos:station:DISL:KATA:1,2011-07-02T00:00:00Z,30.2583,-88.2131,4.117,6.84,1111122 
DISL,ioos:station:DISL:KATA:1,2011-07-02T00:30:00Z,30.2583,-88.2131,4.092,6.75,1111122 
DISL,ioos:station:DISL:KATA:1,2011-07-02T01:00:00Z,30.2583,-88.2131,4.086,6.65,1111122 
DISL,ioos:station:DISL:KATA:1,2011-07-02T01:30:00Z,30.2583,-88.2131,4.086,6.6,1111122 
DISL,ioos:station:DISL:KATA:1,2011-07-02T02:00:00Z,30.2583,-88.2131,4.092,6.33,1111122 
DISL,ioos:station:DISL:KATA:1,2011-07-02T02:30:00Z,30.2583,-88.2131,4.098,6.2,1111122 
DISL,ioos:station:DISL:KATA:1,2011-07-02T03:00:00Z,30.2583,-88.2131,4.11,6.34,1111122 
DISL,ioos:station:DISL:KATA:1,2011-07-02T03:30:00Z,30.2583,-88.2131,4.114,6.02,1111122 
DISL,ioos:station:DISL:KATA:1,2011-07-02T04:00:00Z,30.2583,-88.2131,4.118,5.58,1111122 
DISL,ioos:station:DISL:KATA:1,2011-07-02T04:30:00Z,30.2583,-88.2131,4.14,5.05,1111122 
DISL,ioos:station:DISL:KATA:1,2011-07-02T05:00:00Z,30.2583,-88.2131,4.167,5.29,1111122 
DISL,ioos:station:DISL:KATA:1,2011-07-02T05:30:00Z,30.2583,-88.2131,4.179,5.28,1111122 
DISL,ioos:station:DISL:KATA:1,2011-07-02T06:00:00Z,30.2583,-88.2131,4.195,5.31,1111122 
DISL,ioos:station:DISL:KATA:1,2011-07-02T06:30:00Z,30.2583,-88.2131,4.215,5.24,1111122 
DISL,ioos:station:DISL:KATA:1,2011-07-02T07:00:00Z,30.2583,-88.2131,4.246,4.63,1111122 
DISL,ioos:station:DISL:KATA:1,2011-07-02T07:30:00Z,30.2583,-88.2131,4.28,5.06,1111122 
DISL,ioos:station:DISL:KATA:1,2011-07-02T08:00:00Z,30.2583,-88.2131,4.316,5.33,1111122 
DISL,ioos:station:DISL:KATA:1,2011-07-02T08:30:00Z,30.2583,-88.2131,4.352,5.35,1111122 
DISL,ioos:station:DISL:KATA:1,2011-07-02T09:00:00Z,30.2583,-88.2131,4.4,5.57,1111122 
DISL,ioos:station:DISL:KATA:1,2011-07-02T09:30:00Z,30.2583,-88.2131,4.422,5.7,1111122 
DISL,ioos:station:DISL:KATA:1,2011-07-02T10:00:00Z,30.2583,-88.2131,4.417,5.71,1111122 
DISL,ioos:station:DISL:KATA:1,2011-07-02T10:30:00Z,30.2583,-88.2131,4.421,5.69,1111122 
DISL,ioos:station:DISL:KATA:1,2011-07-02T11:00:00Z,30.2583,-88.2131,4.43,5.72,1111122 
DISL,ioos:station:DISL:KATA:1,2011-07-02T11:30:00Z,30.2583,-88.2131,4.453,5.6,1111122 
DISL,ioos:station:DISL:KATA:1,2011-07-02T12:00:00Z,30.2583,-88.2131,4.471,5.53,1111122 
DISL,ioos:station:DISL:KATA:1,2011-07-02T12:30:00Z,30.2583,-88.2131,4.503,5.39,1111122 
DISL,ioos:station:DISL:KATA:1,2011-07-02T13:00:00Z,30.2583,-88.2131,4.54,5.24,1111122 
DISL,ioos:station:DISL:KATA:1,2011-07-02T13:30:00Z,30.2583,-88.2131,4.582,4.76,1111122 
DISL,ioos:station:DISL:KATA:1,2011-07-02T14:00:00Z,30.2583,-88.2131,4.605,4.79,1111122 
DISL,ioos:station:DISL:KATA:1,2011-07-02T14:30:00Z,30.2583,-88.2131,4.635,4.99,1111122 
DISL,ioos:station:DISL:KATA:1,2011-07-02T15:00:00Z,30.2583,-88.2131,4.652,5.01,1111122 
DISL,ioos:station:DISL:KATA:1,2011-07-02T15:30:00Z,30.2583,-88.2131,4.654,4.92,1111122 
DISL,ioos:station:DISL:KATA:1,2011-07-02T16:00:00Z,30.2583,-88.2131,4.655,5.06,1111122 
DISL,ioos:station:DISL:KATA:1,2011-07-02T16:30:00Z,30.2583,-88.2131,4.65,5.13,1111122 
DISL,ioos:station:DISL:KATA:1,2011-07-02T17:00:00Z,30.2583,-88.2131,4.631,5.07,1111122 
DISL,ioos:station:DISL:KATA:1,2011-07-02T17:30:00Z,30.2583,-88.2131,4.607,4.86,1111122 
DISL,ioos:station:DISL:KATA:1,2011-07-02T18:00:00Z,30.2583,-88.2131,4.587,4.63,1111122 
DISL,ioos:station:DISL:KATA:1,2011-07-02T18:30:00Z,30.2583,-88.2131,4.566,4.42,1111122 
DISL,ioos:station:DISL:KATA:1,2011-07-02T19:00:00Z,30.2583,-88.2131,4.539,4.31,1111122 
DISL,ioos:station:DISL:KATA:1,2011-07-02T19:30:00Z,30.2583,-88.2131,4.526,4.46,1111122 
DISL,ioos:station:DISL:KATA:1,2011-07-02T20:00:00Z,30.2583,-88.2131,4.491,4.62,1111122 
DISL,ioos:station:DISL:KATA:1,2011-07-02T20:30:00Z,30.2583,-88.2131,4.461,4.67,1111122 
DISL,ioos:station:DISL:KATA:1,2011-07-02T21:00:00Z,30.2583,-88.2131,4.428,4.55,1111122 
DISL,ioos:station:DISL:KATA:1,2011-07-02T21:30:00Z,30.2583,-88.2131,4.377,4.76,1111122 
DISL,ioos:station:DISL:KATA:1,2011-07-02T22:00:00Z,30.2583,-88.2131,4.32,5.36,1111122 
DISL,ioos:station:DISL:KATA:1,2011-07-02T22:30:00Z,30.2583,-88.2131,4.26,5.71,1111122 
DISL,ioos:station:DISL:KATA:1,2011-07-02T23:00:00Z,30.2583,-88.2131,4.206,6.26,1111122 
DISL,ioos:station:DISL:KATA:1,2011-07-02T23:30:00Z,30.2583,-88.2131,4.162,6.37,1111122 
DISL,ioos:station:DISL:KATA:1,2011-07-03T00:00:00Z,30.2583,-88.2131,4.126,6.52,1111122 
DISL,ioos:station:DISL:KATA:1,2011-07-03T00:30:00Z,30.2583,-88.2131,4.092,6.3,1111122 
DISL,ioos:station:DISL:KATA:1,2011-07-03T01:00:00Z,30.2583,-88.2131,4.071,6.33,1111122 
DISL,ioos:station:DISL:KATA:1,2011-07-03T01:30:00Z,30.2583,-88.2131,4.067,6.18,1111122 
DISL,ioos:station:DISL:KATA:1,2011-07-03T02:00:00Z,30.2583,-88.2131,4.069,6.07,1111122 
DISL,ioos:station:DISL:KATA:1,2011-07-03T02:30:00Z,30.2583,-88.2131,4.072,5.85,1111122 
DISL,ioos:station:DISL:KATA:1,2011-07-03T03:00:00Z,30.2583,-88.2131,4.091,5.68,1111122 
DISL,ioos:station:DISL:KATA:1,2011-07-03T03:30:00Z,30.2583,-88.2131,4.115,5.85,1111122 
DISL,ioos:station:DISL:KATA:1,2011-07-03T04:00:00Z,30.2583,-88.2131,4.126,5.81,1111122 
DISL,ioos:station:DISL:KATA:1,2011-07-03T04:30:00Z,30.2583,-88.2131,4.122,5.79,1111122 
DISL,ioos:station:DISL:KATA:1,2011-07-03T05:00:00Z,30.2583,-88.2131,4.138,5.36,1111122 
DISL,ioos:station:DISL:KATA:1,2011-07-03T05:30:00Z,30.2583,-88.2131,4.157,4.89,1111122 
DISL,ioos:station:DISL:KATA:1,2011-07-03T06:00:00Z,30.2583,-88.2131,4.164,4.86,1111122 
DISL,ioos:station:DISL:KATA:1,2011-07-03T06:30:00Z,30.2583,-88.2131,4.197,4.78,1111122 
DISL,ioos:station:DISL:KATA:1,2011-07-03T07:00:00Z,30.2583,-88.2131,4.228,3.94,1111122 
DISL,ioos:station:DISL:KATA:1,2011-07-03T07:30:00Z,30.2583,-88.2131,4.253,4.4,1111122 
DISL,ioos:station:DISL:KATA:1,2011-07-03T08:00:00Z,30.2583,-88.2131,4.278,4.1,1111122 
DISL,ioos:station:DISL:KATA:1,2011-07-03T08:30:00Z,30.2583,-88.2131,4.308,4.25,1111122 
DISL,ioos:station:DISL:KATA:1,2011-07-03T09:00:00Z,30.2583,-88.2131,4.332,4.15,1111122 
DISL,ioos:station:DISL:KATA:1,2011-07-03T09:30:00Z,30.2583,-88.2131,4.35,4.14,1111122 
DISL,ioos:station:DISL:KATA:1,2011-07-03T10:00:00Z,30.2583,-88.2131,4.38,4.26,1111122 
DISL,ioos:station:DISL:KATA:1,2011-07-03T10:30:00Z,30.2583,-88.2131,4.407,4.28,1111122 
DISL,ioos:station:DISL:KATA:1,2011-07-03T11:00:00Z,30.2583,-88.2131,4.425,4.44,1111122 
DISL,ioos:station:DISL:KATA:1,2011-07-03T11:30:00Z,30.2583,-88.2131,4.45,4.57,1111122 
DISL,ioos:station:DISL:KATA:1,2011-07-03T12:00:00Z,30.2583,-88.2131,4.465,4.57,1111122 
DISL,ioos:station:DISL:KATA:1,2011-07-03T12:30:00Z,30.2583,-88.2131,4.489,4.7,1111122 
DISL,ioos:station:DISL:KATA:1,2011-07-03T13:00:00Z,30.2583,-88.2131,4.515,4.42,1111122 
DISL,ioos:station:DISL:KATA:1,2011-07-03T13:30:00Z,30.2583,-88.2131,4.55,4.34,1111122 
DISL,ioos:station:DISL:KATA:1,2011-07-03T14:00:00Z,30.2583,-88.2131,4.582,4.31,1111122 
DISL,ioos:station:DISL:KATA:1,2011-07-03T14:30:00Z,30.2583,-88.2131,4.618,4.36,1111122 
DISL,ioos:station:DISL:KATA:1,2011-07-03T15:00:00Z,30.2583,-88.2131,4.653,4.38,1111122 
DISL,ioos:station:DISL:KATA:1,2011-07-03T15:30:00Z,30.2583,-88.2131,4.681,4.52,1111122 
DISL,ioos:station:DISL:KATA:1,2011-07-03T16:00:00Z,30.2583,-88.2131,4.709,4.42,1111122 
DISL,ioos:station:DISL:KATA:1,2011-07-03T16:30:00Z,30.2583,-88.2131,4.727,4.77,1111122 
DISL,ioos:station:DISL:KATA:1,2011-07-03T17:00:00Z,30.2583,-88.2131,4.71,4.61,1111122 
DISL,ioos:station:DISL:KATA:1,2011-07-03T17:30:00Z,30.2583,-88.2131,4.695,4.44,1111122 
DISL,ioos:station:DISL:KATA:1,2011-07-03T18:00:00Z,30.2583,-88.2131,4.667,4.31,1111122 
DISL,ioos:station:DISL:KATA:1,2011-07-03T18:30:00Z,30.2583,-88.2131,4.639,3.8,1111122 
DISL,ioos:station:DISL:KATA:1,2011-07-03T19:00:00Z,30.2583,-88.2131,4.619,4.07,1111122 
DISL,ioos:station:DISL:KATA:1,2011-07-03T19:30:00Z,30.2583,-88.2131,4.599,4.12,1111122 
DISL,ioos:station:DISL:KATA:1,2011-07-03T20:00:00Z,30.2583,-88.2131,4.564,4.54,1111122 
DISL,ioos:station:DISL:KATA:1,2011-07-03T20:30:00Z,30.2583,-88.2131,4.535,4.76,1111122 
DISL,ioos:station:DISL:KATA:1,2011-07-03T21:00:00Z,30.2583,-88.2131,4.502,4.7,1111122 
DISL,ioos:station:DISL:KATA:1,2011-07-03T21:30:00Z,30.2583,-88.2131,4.458,4.78,1111122 
DISL,ioos:station:DISL:KATA:1,2011-07-03T22:00:00Z,30.2583,-88.2131,4.408,4.77,1111122 
DISL,ioos:station:DISL:KATA:1,2011-07-03T22:30:00Z,30.2583,-88.2131,4.368,5.34,1111122 
DISL,ioos:station:DISL:KATA:1,2011-07-03T23:00:00Z,30.2583,-88.2131,4.318,5.7,1111122 
DISL,ioos:station:DISL:KATA:1,2011-07-03T23:30:00Z,30.2583,-88.2131,4.279,6.81,1111122 
DISL,ioos:station:DISL:KATA:1,2011-07-04T00:00:00Z,30.2583,-88.2131,4.233,7.49,1111122 
DISL,ioos:station:DISL:KATA:1,2011-07-04T00:30:00Z,30.2583,-88.2131,4.207,7.51,1111122 
DISL,ioos:station:DISL:KATA:1,2011-07-04T01:00:00Z,30.2583,-88.2131,4.196,7.4,1111122 
DISL,ioos:station:DISL:KATA:1,2011-07-04T01:30:00Z,30.2583,-88.2131,4.193,7.3,1111122 
DISL,ioos:station:DISL:KATA:1,2011-07-04T02:00:00Z,30.2583,-88.2131,4.175,7.17,1111122 
DISL,ioos:station:DISL:KATA:1,2011-07-04T02:30:00Z,30.2583,-88.2131,4.176,7.02,1111122 
DISL,ioos:station:DISL:KATA:1,2011-07-04T03:00:00Z,30.2583,-88.2131,4.184,6.71,1111122 
DISL,ioos:station:DISL:KATA:1,2011-07-04T03:30:00Z,30.2583,-88.2131,4.199,6.73,1111122 
DISL,ioos:station:DISL:KATA:1,2011-07-04T04:00:00Z,30.2583,-88.2131,4.209,6.56,1111122 
DISL,ioos:station:DISL:KATA:1,2011-07-04T04:30:00Z,30.2583,-88.2131,4.217,6.46,1111122 
DISL,ioos:station:DISL:KATA:1,2011-07-04T05:00:00Z,30.2583,-88.2131,4.218,6.56,1111122 
DISL,ioos:station:DISL:KATA:1,2011-07-04T05:30:00Z,30.2583,-88.2131,4.203,6.29,1111122 
DISL,ioos:station:DISL:KATA:1,2011-07-04T06:00:00Z,30.2583,-88.2131,4.214,6.17,1111122 
DISL,ioos:station:DISL:KATA:1,2011-07-04T06:30:00Z,30.2583,-88.2131,4.235,6.01,1111122 
DISL,ioos:station:DISL:KATA:1,2011-07-04T07:00:00Z,30.2583,-88.2131,4.267,5.85,1111122 
DISL,ioos:station:DISL:KATA:1,2011-07-04T07:30:00Z,30.2583,-88.2131,4.296,5.78,1111122 
DISL,ioos:station:DISL:KATA:1,2011-07-04T08:00:00Z,30.2583,-88.2131,4.338,3.98,1111122 
DISL,ioos:station:DISL:KATA:1,2011-07-04T08:30:00Z,30.2583,-88.2131,4.366,4.1,1111122 
DISL,ioos:station:DISL:KATA:1,2011-07-04T09:00:00Z,30.2583,-88.2131,4.385,4.14,1111122 
DISL,ioos:station:DISL:KATA:1,2011-07-04T09:30:00Z,30.2583,-88.2131,4.401,4.25,1111122 
DISL,ioos:station:DISL:KATA:1,2011-07-04T10:00:00Z,30.2583,-88.2131,4.405,4.2,1111122 
DISL,ioos:station:DISL:KATA:1,2011-07-04T10:30:00Z,30.2583,-88.2131,4.41,4.2,1111122 
DISL,ioos:station:DISL:KATA:1,2011-07-04T11:00:00Z,30.2583,-88.2131,4.421,4.21,1111122 
DISL,ioos:station:DISL:KATA:1,2011-07-04T11:30:00Z,30.2583,-88.2131,4.437,4.22,1111122 
DISL,ioos:station:DISL:KATA:1,2011-07-04T12:00:00Z,30.2583,-88.2131,4.472,4.11,1111122 
DISL,ioos:station:DISL:KATA:1,2011-07-04T12:30:00Z,30.2583,-88.2131,4.501,4.0,1111122 
DISL,ioos:station:DISL:KATA:1,2011-07-04T13:00:00Z,30.2583,-88.2131,4.535,4.65,1111122 
DISL,ioos:station:DISL:KATA:1,2011-07-04T13:30:00Z,30.2583,-88.2131,4.565,4.61,1111122 
DISL,ioos:station:DISL:KATA:1,2011-07-04T14:00:00Z,30.2583,-88.2131,4.591,4.67,1111122 
DISL,ioos:station:DISL:KATA:1,2011-07-04T14:30:00Z,30.2583,-88.2131,4.617,5.05,1111122 
DISL,ioos:station:DISL:KATA:1,2011-07-04T15:00:00Z,30.2583,-88.2131,4.632,4.62,1111122 
DISL,ioos:station:DISL:KATA:1,2011-07-04T15:30:00Z,30.2583,-88.2131,4.649,4.57,1111122 
DISL,ioos:station:DISL:KATA:1,2011-07-04T16:00:00Z,30.2583,-88.2131,4.649,4.81,1111122 
DISL,ioos:station:DISL:KATA:1,2011-07-04T16:30:00Z,30.2583,-88.2131,4.648,5.04,1111122 
DISL,ioos:station:DISL:KATA:1,2011-07-04T17:00:00Z,30.2583,-88.2131,4.642,4.6,1111122 
DISL,ioos:station:DISL:KATA:1,2011-07-04T17:30:00Z,30.2583,-88.2131,4.632,5.04,1111122 
DISL,ioos:station:DISL:KATA:1,2011-07-04T18:00:00Z,30.2583,-88.2131,4.623,5.04,1111122 
DISL,ioos:station:DISL:KATA:1,2011-07-04T18:30:00Z,30.2583,-88.2131,4.608,4.61,1111122 
DISL,ioos:station:DISL:KATA:1,2011-07-04T19:00:00Z,30.2583,-88.2131,4.6,4.41,1111122 
DISL,ioos:station:DISL:KATA:1,2011-07-04T19:30:00Z,30.2583,-88.2131,4.593,4.38,1111122 
DISL,ioos:station:DISL:KATA:1,2011-07-04T20:00:00Z,30.2583,-88.2131,4.578,4.33,1111122 
DISL,ioos:station:DISL:KATA:1,2011-07-04T20:30:00Z,30.2583,-88.2131,4.559,4.72,1111122 
DISL,ioos:station:DISL:KATA:1,2011-07-04T21:00:00Z,30.2583,-88.2131,4.525,4.59,1111122 
DISL,ioos:station:DISL:KATA:1,2011-07-04T21:30:00Z,30.2583,-88.2131,4.494,4.61,1111122 
DISL,ioos:station:DISL:KATA:1,2011-07-04T22:00:00Z,30.2583,-88.2131,4.453,4.75,1111122 
DISL,ioos:station:DISL:KATA:1,2011-07-04T22:30:00Z,30.2583,-88.2131,4.427,4.67,1111122 
DISL,ioos:station:DISL:KATA:1,2011-07-04T23:00:00Z,30.2583,-88.2131,4.383,5.02,1111122 
DISL,ioos:station:DISL:KATA:1,2011-07-04T23:30:00Z,30.2583,-88.2131,4.34,5.15,1111122 
DISL,ioos:station:DISL:KATA:1,2011-07-05T00:00:00Z,30.2583,-88.2131,4.303,5.3,1111122 
DISL,ioos:station:DISL:KATA:1,2011-07-05T00:30:00Z,30.2583,-88.2131,4.267,6.12,1111122 
DISL,ioos:station:DISL:KATA:1,2011-07-05T01:00:00Z,30.2583,-88.2131,4.248,6.8,1111122 
DISL,ioos:station:DISL:KATA:1,2011-07-05T01:30:00Z,30.2583,-88.2131,4.222,7.26,1111122 
DISL,ioos:station:DISL:KATA:1,2011-07-05T02:00:00Z,30.2583,-88.2131,4.21,7.3,1111122 
DISL,ioos:station:DISL:KATA:1,2011-07-05T02:30:00Z,30.2583,-88.2131,4.207,7.38,1111122 
DISL,ioos:station:DISL:KATA:1,2011-07-05T03:00:00Z,30.2583,-88.2131,4.215,7.24,1111122 
DISL,ioos:station:DISL:KATA:1,2011-07-05T03:30:00Z,30.2583,-88.2131,4.213,7.03,1111122 
DISL,ioos:station:DISL:KATA:1,2011-07-05T04:00:00Z,30.2583,-88.2131,4.243,6.56,1111122 
DISL,ioos:station:DISL:KATA:1,2011-07-05T04:30:00Z,30.2583,-88.2131,4.258,6.04,1111122 
DISL,ioos:station:DISL:KATA:1,2011-07-05T05:00:00Z,30.2583,-88.2131,4.26,5.84,1111122 
DISL,ioos:station:DISL:KATA:1,2011-07-05T05:30:00Z,30.2583,-88.2131,4.282,5.65,1111122 
DISL,ioos:station:DISL:KATA:1,2011-07-05T06:00:00Z,30.2583,-88.2131,4.289,5.8,1111122 
DISL,ioos:station:DISL:KATA:1,2011-07-05T06:30:00Z,30.2583,-88.2131,4.295,6.13,1111122 
DISL,ioos:station:DISL:KATA:1,2011-07-05T07:00:00Z,30.2583,-88.2131,4.307,6.01,1111122 
DISL,ioos:station:DISL:KATA:1,2011-07-05T07:30:00Z,30.2583,-88.2131,4.346,5.93,1111122 
DISL,ioos:station:DISL:KATA:1,2011-07-05T08:00:00Z,30.2583,-88.2131,4.366,4.35,1111122 
DISL,ioos:station:DISL:KATA:1,2011-07-05T08:30:00Z,30.2583,-88.2131,4.39,4.23,1111122 
DISL,ioos:station:DISL:KATA:1,2011-07-05T09:00:00Z,30.2583,-88.2131,4.415,4.59,1111122 
DISL,ioos:station:DISL:KATA:1,2011-07-05T09:30:00Z,30.2583,-88.2131,4.43,4.5,1111122 
DISL,ioos:station:DISL:KATA:1,2011-07-05T10:00:00Z,30.2583,-88.2131,4.436,4.36,1111122 
DISL,ioos:station:DISL:KATA:1,2011-07-05T10:30:00Z,30.2583,-88.2131,4.434,4.42,1111122 
DISL,ioos:station:DISL:KATA:1,2011-07-05T11:00:00Z,30.2583,-88.2131,4.431,4.33,1111122 
DISL,ioos:station:DISL:KATA:1,2011-07-05T11:30:00Z,30.2583,-88.2131,4.432,4.16,1111122 
DISL,ioos:station:DISL:KATA:1,2011-07-05T12:00:00Z,30.2583,-88.2131,4.44,4.3,1111122 
DISL,ioos:station:DISL:KATA:1,2011-07-05T12:30:00Z,30.2583,-88.2131,4.448,4.24,1111122 
DISL,ioos:station:DISL:KATA:1,2011-07-05T13:00:00Z,30.2583,-88.2131,4.466,3.84,1111122 
DISL,ioos:station:DISL:KATA:1,2011-07-05T13:30:00Z,30.2583,-88.2131,4.494,3.96,1111122 
DISL,ioos:station:DISL:KATA:1,2011-07-05T14:00:00Z,30.2583,-88.2131,4.515,3.64,1111122 
DISL,ioos:station:DISL:KATA:1,2011-07-05T14:30:00Z,30.2583,-88.2131,4.54,3.77,1111122 
DISL,ioos:station:DISL:KATA:1,2011-07-05T15:00:00Z,30.2583,-88.2131,4.564,3.8,1111122 
DISL,ioos:station:DISL:KATA:1,2011-07-05T15:30:00Z,30.2583,-88.2131,4.583,3.71,1111122 
DISL,ioos:station:DISL:KATA:1,2011-07-05T16:00:00Z,30.2583,-88.2131,4.593,3.66,1111122 
DISL,ioos:station:DISL:KATA:1,2011-07-05T16:30:00Z,30.2583,-88.2131,4.594,3.21,1111122 
DISL,ioos:station:DISL:KATA:1,2011-07-05T17:00:00Z,30.2583,-88.2131,4.597,2.91,1111122 
DISL,ioos:station:DISL:KATA:1,2011-07-05T17:30:00Z,30.2583,-88.2131,4.595,2.49,1111122 
DISL,ioos:station:DISL:KATA:1,2011-07-05T18:00:00Z,30.2583,-88.2131,4.598,2.24,1111122 
DISL,ioos:station:DISL:KATA:1,2011-07-05T18:30:00Z,30.2583,-88.2131,4.596,2.32,1111122 
DISL,ioos:station:DISL:KATA:1,2011-07-05T19:00:00Z,30.2583,-88.2131,4.6,2.04,1111122 
DISL,ioos:station:DISL:KATA:1,2011-07-05T19:30:00Z,30.2583,-88.2131,4.598,2.2,1111122 
DISL,ioos:station:DISL:KATA:1,2011-07-05T20:00:00Z,30.2583,-88.2131,4.595,1.9,1111122 
DISL,ioos:station:DISL:KATA:1,2011-07-05T20:30:00Z,30.2583,-88.2131,4.58,1.69,1111122 
DISL,ioos:station:DISL:KATA:1,2011-07-05T21:00:00Z,30.2583,-88.2131,4.572,1.75,1111122 
DISL,ioos:station:DISL:KATA:1,2011-07-05T21:30:00Z,30.2583,-88.2131,4.557,1.6,1111122 
DISL,ioos:station:DISL:KATA:1,2011-07-05T22:00:00Z,30.2583,-88.2131,4.545,1.65,1111122 
DISL,ioos:station:DISL:KATA:1,2011-07-05T22:30:00Z,30.2583,-88.2131,4.528,1.43,1111122 
DISL,ioos:station:DISL:KATA:1,2011-07-05T23:00:00Z,30.2583,-88.2131,4.498,1.38,1111122 
DISL,ioos:station:DISL:KATA:1,2011-07-05T23:30:00Z,30.2583,-88.2131,4.508,1.38,1111122 
DISL,ioos:station:DISL:KATA:1,2011-07-06T00:00:00Z,30.2583,-88.2131,4.455,2.05,1111122 
DISL,ioos:station:DISL:KATA:1,2011-07-06T00:30:00Z,30.2583,-88.2131,4.355,2.49,1111122 
DISL,ioos:station:DISL:KATA:1,2011-07-06T01:00:00Z,30.2583,-88.2131,4.298,3.67,1111122 
DISL,ioos:station:DISL:KATA:1,2011-07-06T01:30:00Z,30.2583,-88.2131,4.258,5.07,1111122 
DISL,ioos:station:DISL:KATA:1,2011-07-06T02:00:00Z,30.2583,-88.2131,4.224,6.8,1111122 
DISL,ioos:station:DISL:KATA:1,2011-07-06T02:30:00Z,30.2583,-88.2131,4.22,6.8,1111122 
DISL,ioos:station:DISL:KATA:1,2011-07-06T03:00:00Z,30.2583,-88.2131,4.245,6.71,1111122 
DISL,ioos:station:DISL:KATA:1,2011-07-06T03:30:00Z,30.2583,-88.2131,4.254,6.52,1111122 
DISL,ioos:station:DISL:KATA:1,2011-07-06T04:00:00Z,30.2583,-88.2131,4.292,5.86,1111122 
DISL,ioos:station:DISL:KATA:1,2011-07-06T04:30:00Z,30.2583,-88.2131,4.347,5.8,1111122 
DISL,ioos:station:DISL:KATA:1,2011-07-06T05:00:00Z,30.2583,-88.2131,4.389,5.94,1111122 
DISL,ioos:station:DISL:KATA:1,2011-07-06T05:30:00Z,30.2583,-88.2131,4.413,5.77,1111122 
DISL,ioos:station:DISL:KATA:1,2011-07-06T06:00:00Z,30.2583,-88.2131,4.448,5.76,1111122 
DISL,ioos:station:DISL:KATA:1,2011-07-06T06:30:00Z,30.2583,-88.2131,4.456,5.84,1111122 
DISL,ioos:station:DISL:KATA:1,2011-07-06T07:00:00Z,30.2583,-88.2131,4.462,4.41,1111122 
DISL,ioos:station:DISL:KATA:1,2011-07-06T07:30:00Z,30.2583,-88.2131,4.462,3.94,1111122 
DISL,ioos:station:DISL:KATA:1,2011-07-06T08:00:00Z,30.2583,-88.2131,4.45,4.15,1111122 
DISL,ioos:station:DISL:KATA:1,2011-07-06T08:30:00Z,30.2583,-88.2131,4.44,4.15,1111122 
DISL,ioos:station:DISL:KATA:1,2011-07-06T09:00:00Z,30.2583,-88.2131,4.436,3.6,1111122 
DISL,ioos:station:DISL:KATA:1,2011-07-06T09:30:00Z,30.2583,-88.2131,4.443,3.71,1111122 
DISL,ioos:station:DISL:KATA:1,2011-07-06T10:00:00Z,30.2583,-88.2131,4.457,3.21,1111122 
DISL,ioos:station:DISL:KATA:1,2011-07-06T10:30:00Z,30.2583,-88.2131,4.479,3.33,1111122 
DISL,ioos:station:DISL:KATA:1,2011-07-06T11:00:00Z,30.2583,-88.2131,4.485,3.08,1111122 
DISL,ioos:station:DISL:KATA:1,2011-07-06T11:30:00Z,30.2583,-88.2131,4.488,2.8,1111122 
DISL,ioos:station:DISL:KATA:1,2011-07-06T12:00:00Z,30.2583,-88.2131,4.49,2.88,1111122 
DISL,ioos:station:DISL:KATA:1,2011-07-06T12:30:00Z,30.2583,-88.2131,4.489,2.95,1111122 
DISL,ioos:station:DISL:KATA:1,2011-07-06T13:00:00Z,30.2583,-88.2131,4.486,2.72,1111122 
DISL,ioos:station:DISL:KATA:1,2011-07-06T13:30:00Z,30.2583,-88.2131,4.484,2.61,1111122 
DISL,ioos:station:DISL:KATA:1,2011-07-06T14:00:00Z,30.2583,-88.2131,4.484,2.51,1111122 
DISL,ioos:station:DISL:KATA:1,2011-07-06T14:30:00Z,30.2583,-88.2131,4.488,2.18,1111122 
DISL,ioos:station:DISL:KATA:1,2011-07-06T15:00:00Z,30.2583,-88.2131,4.504,2.1,1111122 
DISL,ioos:station:DISL:KATA:1,2011-07-06T15:30:00Z,30.2583,-88.2131,4.511,1.91,1111122 